Погода в Трусове

Россия / Астраханская область     46°20′45″N   47°57′09″E
темп.,
°C
ветер,
м/с
пор.,
м/с
влажн.,
%
обл.,
%
осадки,
мм/ч
давл.,
гПа
погр.,
м
24 сентября, пт
пт2401:00+15с5782100 1.2 1011337
04:00+15ссв5984100 1.3 1009376
07:00+15ссв61179100 0.0 1007468
10:00+18ссз656498 0.0 1007730
13:00+21сз7749100 0.0 10071020
16:00+18сз910626 0.0 1008833
19:00+14зсз7107538 0.0 1010574
22:00+13зсз71173100 0.0 1012614
25 сентября, сб
сб2501:00+12зсз5107199 0.0 1012434
04:00+11зсз49770 0.0 1012247
07:00+10зсз35790 0.0 1013131
10:00+16зсз235985 0.0 1013598
13:00+19з2241100 0.0 10121185
16:00+20зсз3239100 0.0 10121234
19:00+17з2348100 0.0 1014138
22:00+16юз3351100 0.0 101471
26 сентября, вс
вс2601:00+14з4983100 0.8 1015532
04:00+14зюз5977100 0.9 1015472
07:00+13з59820 0.2 1015340
10:00+16з79575 0.2 1016836
13:00+18з894732 0.3 10151616
16:00+17з7944100 0.4 10141671
19:00+16з6114933 0.0 1014847
22:00+13юз71378100 0.4 1013878
27 сентября, пн
пн2701:00+15зюз81478100 1.3 10101098
04:00+15з9147744 1.9 1009900
07:00+14з814730 0.4 1010794
10:00+15зсз911601 0.4 10111202
13:00+18зсз911415 0.0 10111982
16:00+18зсз912366 0.0 10122329
19:00+14сз711445 0.0 1014852
22:00+13зсз48535 0.0 1015284
28 сентября, вт
вт2801:00+12зсз48615 0.0 1016236
04:00+11зсз486912 0.0 1017203
07:00+11зсз367277 0.0 1018161
10:00+14сз3463100 0.0 1019532
13:00+16зсз335435 0.0 1020951
16:00+17с4448100 0.1 10201354
19:00+15ссв585097 0.0 1022574
22:00+13ссв4653100 0.0 1024545